Probability
0 0 0 0 0 0 0 0 0 0 0 0 0 0 0 0 0 0 0 0 0 0 0 0 0 0 0 0 0 0 0 0 0 0 0 0 0 0 0 0 0 10 3 0
0 0 0 0 0 0 0 0 0 0 0 0 0 0 0 0 0 0 0 0 0 0 0 0 0 0 0 0 0 0 0 0 0 0 0 0 0 0 0 0 0 0 0 0
0 0 0 0 0 0 0 0 0 0 0 0 0 0 0 0 0 0 0 0 0 0 0 0 0 0 0 0 0 0 0 0 0 0 0 0 0 0 0 0 0 0 0 0
0 0 0 0 0 0 0 0 0 0 0 0 0 0 0 0 0 0 0 0 0 0 0 0 0 0 0 0 0 0 0 0 0 0 0 0 0 0 0 0 0 0 0 0
0 0 0 0 0 0 0 0 0 0 0 0 0 0 0 0 0 0 0 0 0 0 0 0 0 0 0 0 0 0 0 0 0 0 0 0 0 0 0 0 0 0 0 0
0 0 0 0 0 0 0 0 0 0 0 0 0 0 0 0 0 0 0 0 0 0 0 0 0 0 0 0 0 0 0 0 0 0 0 0 0 0 0 0 0 0 0 0
0 0 0 0 0 0 0 0 0 0 0 0 0 0 0 0 0 0 0 0 0 0 0 0 0 0 0 0 0 0 0 0 0 0 0 0 0 0 0 0 0 0 0 0
0 0 0 0 0 0 0 0 0 0 0 0 0 0 0 0 0 0 0 0 0 0 0 0 0 0 0 0 0 0 0 0 0 0 0 0 0 0 0 0 0 0 0 0
0 0 0 0 0 0 0 0 0 0 0 0 0 0 0 0 0 0 0 0 0 0 0 0 0 0 0 0 0 0 0 0 0 0 0 0 0 0 0 0 0 0 0 0
0 0 0 0 0 0 0 0 0 0 0 0 0 0 0 0 0 0 0 0 0 0 0 0 0 0 0 0 0 0 0 0 0 0 0 0 0 0 0 0 0 0 0 0
0 0 0 0 0 0 0 0 0 0 0 0 0 0 0 0 0 0 0 0 0 0 0 0 0 0 0 0 0 0 0 0 0 0 0 0 0 0 0 0 0 0 0 0
0 0 0 0 0 0 0 0 0 0 0 0 0 0 0 0 0 0 0 0 0 0 0 0 0 0 0 0 0 0 0 0 0 0 0 0 0 0 0 0 0 0 0 0
0 0 0 0 0 0 0 0 0 0 0 0 0 0 0 0 0 0 0 0 0 0 0 0 0 0 0 0 0 0 0 0 0 0 0 0 0 0 0 0 0 0 0 0
0 0 0 0 0 0 0 0 0 0 0 0 0 0 0 0 0 0 0 0 0 0 0 0 0 0 0 0 0 0 0 0 0 0 0 0 0 0 0 0 0 0 0 0
0 0 0 0 0 0 0 0 0 0 0 0 0 0 0 0 0 0 0 0 0 0 0 0 0 0 0 0 0 0 0 0 0 0 0 0 0 0 0 0 0 0 0 0
0 0 0 0 0 0 0 0 0 0 0 0 0 0 0 0 0 0 0 0 0 0 0 0 0 0 0 0 0 0 0 0 0 0 0 0 0 0 0 0 0 0 0 0
0 0 0 0 0 0 0 0 0 0 0 0 0 0 0 0 0 0 0 0 0 0 0 0 0 0 0 0 0 0 0 0 0 0 0 0 0 0 0 0 0 0 0 0
0 0 0 0 0 0 0 0 0 0 0 0 0 0 0 0 0 0 0 0 0 0 0 0 0 0 0 0 0 0 0 0 0 0 0 0 0 0 0 0 0 0 0 0
0 0 0 0 0 0 0 0 0 0 0 0 0 0 0 0 0 0 0 0 0 0 0 0 0 0 0 0 0 0 0 0 0 0 0 0 0 0 0 0 0 0 0 0
0 0 0 0 0 0 0 0 0 0 0 0 0 0 0 0 0 0 0 0 0 0 0 0 0 0 0 0 0 0 0 0 0 0 0 0 0 0 0 0 0 0 0 0
0 0 0 0 0 0 0 0 0 0 0 0 0 0 0 0 0 0 0 0 0 0 0 0 0 0 0 0 0 0 0 0 0 0 0 0 0 0 0 0 0 0 0 0
0 0 0 0 0 0 0 0 0 0 0 0 0 0 0 0 0 0 0 0 0 0 0 0 0 0 0 0 0 0 0 0 0 0 0 0 0 0 0 0 0 0 0 0
0 0 0 0 0 0 0 0 0 0 0 0 0 0 0 0 0 0 0 0 0 0 0 0 0 0 0 0 0 0 0 0 0 0 0 0 0 0 0 0 0 0 0 0
0 0 0 0 0 0 0 0 0 0 0 0 0 0 0 0 0 0 0 0 0 0 0 0 0 0 0 0 0 0 0 0 0 0 0 0 0 0 0 0 0 0 0 0
0 0 0 0 0 0 0 0 0 0 0 0 0 0 0 0 0 0 0 0 0 0 0 0 0 0 0 0 0 0 0 0 0 0 0 0 0 0 0 0 0 0 0 0
0 0 0 0 0 0 0 0 0 0 0 0 0 0 0 0 0 0 0 0 0 0 0 0 0 0 0 0 0 0 0 0 0 0 0 0 0 0 0 0 0 0 0 0
0 0 0 0 0 0 0 0 0 0 0 0 0 0 0 0 0 0 0 0 0 0 0 0 0 0 0 0 0 0 0 0 0 0 0 0 0 0 0 0 0 0 0 0
Height
5844 5841 5838 5834 5831 5827 5823 5819 5815 5810 5803 5797 5791 5785 5779 5773 5767 5761 5755 5749 5744 5738 5733 5727 5722 5717 5712 5708 5704 5700 5697 5694 5692 5691 5689 5689 5691 5692 5693 5695 5697 5698 5700 5701
5840 5836 5832 5829 5825 5821 5816 5811 5806 5800 5793 5787 5780 5773 5767 5760 5753 5746 5739 5732 5726 5719 5712 5706 5700 5694 5689 5685 5680 5677 5674 5671 5669 5667 5667 5668 5669 5671 5673 5676 5679 5682 5684 5686
5836 5831 5827 5823 5819 5813 5808 5802 5797 5790 5784 5775 5768 5761 5753 5746 5737 5729 5721 5712 5704 5696 5689 5681 5674 5668 5663 5658 5653 5650 5647 5644 5642 5641 5642 5643 5645 5648 5651 5655 5659 5663 5667 5670
5832 5827 5822 5820 5812 5806 5799 5793 5787 5779 5772 5764 5755 5747 5739 5729 5719 5710 5700 5690 5680 5670 5661 5653 5646 5639 5633 5628 5623 5619 5616 5614 5613 5613 5614 5616 5619 5622 5627 5633 5638 5644 5649 5653
5827 5821 5815 5811 5804 5797 5790 5784 5776 5768 5759 5751 5741 5732 5723 5709 5697 5686 5675 5664 5653 5643 5634 5627 5620 5613 5608 5604 5599 5595 5591 5589 5588 5587 5589 5590 5593 5597 5603 5609 5616 5623 5629 5636
5820 5814 5809 5803 5795 5787 5781 5772 5763 5754 5745 5735 5724 5714 5704 5690 5676 5663 5651 5640 5631 5623 5616 5610 5604 5598 5593 5589 5584 5580 5576 5574 5571 5570 5571 5572 5574 5577 5582 5587 5595 5602 5610 5618
5814 5808 5801 5795 5786 5779 5772 5764 5753 5742 5731 5719 5707 5694 5681 5667 5654 5642 5631 5623 5616 5610 5604 5599 5593 5588 5582 5578 5573 5569 5566 5563 5561 5559 5559 5560 5561 5564 5567 5571 5577 5585 5593 5601
5808 5801 5795 5786 5777 5770 5762 5750 5739 5728 5716 5703 5689 5674 5660 5647 5635 5626 5618 5612 5606 5601 5596 5590 5584 5578 5573 5568 5563 5559 5556 5553 5552 5550 5550 5550 5551 5554 5556 5560 5565 5571 5579 5586
5803 5797 5787 5777 5768 5759 5748 5737 5726 5713 5700 5685 5670 5656 5643 5632 5624 5616 5610 5604 5598 5592 5586 5580 5574 5567 5562 5558 5553 5549 5546 5544 5543 5542 5541 5542 5543 5545 5547 5550 5554 5560 5566 5574
5794 5787 5779 5769 5758 5748 5737 5725 5712 5698 5683 5668 5653 5640 5630 5621 5614 5608 5601 5595 5588 5581 5575 5569 5562 5556 5550 5546 5542 5538 5536 5534 5532 5532 5532 5532 5533 5535 5538 5541 5545 5550 5555 5563
5787 5779 5770 5760 5749 5737 5726 5713 5699 5684 5668 5652 5638 5628 5620 5612 5606 5599 5592 5584 5577 5569 5562 5555 5548 5542 5537 5532 5528 5525 5523 5521 5521 5521 5521 5522 5523 5525 5528 5531 5535 5540 5546 5553
5780 5771 5761 5751 5740 5728 5715 5702 5686 5670 5655 5641 5627 5618 5611 5604 5597 5589 5581 5572 5564 5555 5547 5540 5533 5527 5521 5517 5513 5510 5509 5508 5507 5508 5509 5510 5512 5514 5517 5521 5525 5531 5537 5545
5772 5763 5754 5743 5731 5717 5703 5688 5673 5656 5642 5630 5620 5610 5602 5595 5587 5578 5569 5559 5550 5541 5533 5525 5517 5511 5505 5501 5497 5495 5493 5493 5494 5495 5497 5499 5501 5503 5507 5511 5515 5522 5529 5537
5764 5755 5746 5734 5722 5707 5692 5677 5661 5645 5632 5620 5611 5603 5594 5586 5577 5567 5557 5546 5536 5526 5517 5509 5501 5495 5489 5484 5481 5479 5478 5479 5480 5482 5485 5488 5491 5493 5498 5502 5508 5514 5522 5531
5758 5748 5737 5725 5712 5698 5682 5666 5651 5637 5625 5614 5604 5595 5586 5576 5566 5555 5544 5533 5522 5512 5502 5493 5485 5479 5473 5469 5466 5465 5464 5465 5468 5471 5475 5479 5482 5486 5491 5496 5503 5510 5519 5528
5752 5741 5728 5716 5703 5688 5673 5657 5642 5629 5617 5607 5598 5588 5578 5567 5556 5544 5532 5520 5509 5499 5489 5479 5471 5465 5459 5455 5453 5452 5453 5455 5458 5462 5467 5472 5476 5482 5487 5493 5500 5508 5517 5528
5744 5733 5721 5708 5694 5680 5664 5648 5634 5621 5610 5601 5591 5581 5571 5559 5547 5535 5523 5510 5498 5487 5477 5468 5460 5454 5449 5445 5443 5443 5444 5447 5451 5456 5462 5467 5473 5479 5484 5491 5499 5508 5518 5529
5735 5724 5712 5699 5686 5672 5658 5642 5628 5615 5604 5595 5585 5575 5563 5551 5538 5526 5514 5502 5491 5480 5470 5460 5452 5446 5441 5437 5436 5437 5439 5443 5448 5454 5460 5466 5472 5478 5484 5492 5502 5511 5522 5533
5729 5718 5706 5693 5679 5664 5650 5635 5622 5610 5599 5590 5580 5569 5557 5545 5532 5520 5508 5496 5485 5475 5465 5456 5448 5441 5436 5434 5434 5436 5439 5443 5449 5455 5461 5467 5474 5481 5489 5498 5507 5517 5528 5537
5722 5712 5700 5687 5673 5659 5644 5630 5617 5605 5595 5586 5575 5565 5553 5541 5529 5516 5504 5492 5481 5471 5462 5454 5446 5440 5437 5436 5437 5439 5443 5448 5453 5459 5465 5471 5479 5487 5496 5505 5514 5524 5533 5543
5716 5706 5694 5682 5668 5654 5639 5625 5613 5602 5592 5583 5573 5562 5551 5539 5527 5515 5504 5493 5482 5472 5463 5456 5450 5445 5443 5442 5444 5447 5451 5455 5461 5467 5473 5481 5488 5496 5504 5513 5522 5531 5540 5548
5711 5700 5689 5677 5664 5650 5636 5622 5610 5599 5590 5581 5572 5561 5551 5540 5528 5517 5505 5495 5485 5477 5469 5463 5458 5454 5452 5452 5454 5456 5460 5465 5471 5477 5484 5491 5498 5505 5513 5521 5529 5538 5546 5554
5705 5695 5684 5672 5660 5646 5633 5619 5607 5598 5589 5581 5572 5562 5552 5541 5530 5520 5510 5501 5492 5484 5478 5472 5468 5466 5464 5464 5466 5469 5473 5477 5483 5489 5495 5501 5508 5515 5522 5529 5537 5544 5552 5559
5700 5690 5680 5668 5656 5644 5631 5618 5607 5598 5590 5581 5573 5564 5554 5545 5536 5526 5517 5509 5501 5494 5489 5484 5481 5479 5478 5478 5480 5482 5486 5490 5495 5501 5506 5512 5519 5525 5531 5537 5544 5551 5557 5564
5694 5685 5675 5665 5653 5641 5629 5617 5607 5598 5591 5583 5575 5567 5558 5550 5542 5534 5526 5519 5512 5506 5501 5498 5495 5493 5492 5493 5494 5496 5500 5503 5508 5513 5518 5523 5529 5534 5540 5545 5551 5557 5563 5568
5689 5680 5671 5661 5650 5639 5627 5616 5606 5598 5592 5585 5578 5570 5562 5555 5548 5541 5535 5529 5523 5519 5515 5512 5509 5508 5507 5507 5508 5510 5513 5516 5520 5524 5528 5533 5537 5542 5547 5552 5557 5562 5567 5571
5684 5676 5667 5657 5647 5636 5625 5614 5605 5598 5592 5586 5579 5572 5566 5560 5554 5549 5543 5538 5534 5530 5527 5524 5522 5521 5520 5520 5521 5523 5525 5528 5531 5534 5537 5541 5545 5549 5553 5557 5562 5566 5570 5574
Wind_Speed
19 20 22 23 25 26 28 30 33 35 39 41 43 44 45 46 48 49 51 52 54 56 58 60 62 63 65 66 68 69 69 70 70 70 69 67 64 62 58 54 51 47 44 41
20 22 24 25 27 29 31 33 35 38 40 42 44 45 47 48 51 53 56 58 61 63 65 67 69 71 73 74 74 75 76 76 76 76 75 72 70 67 63 59 54 51 48 46
23 25 27 29 30 33 35 36 38 40 43 45 47 49 51 54 57 60 63 66 69 72 74 76 78 80 81 82 82 82 83 82 82 82 80 77 75 71 68 63 59 54 51 48
25 28 31 32 33 35 37 38 40 43 46 49 52 54 57 61 65 68 71 74 76 77 78 77 76 75 75 75 76 76 77 77 78 79 78 76 74 71 68 65 60 56 53 50
28 30 34 34 35 37 40 42 44 47 50 53 56 60 64 69 73 76 78 78 76 72 69 64 60 57 56 54 54 55 56 58 59 60 61 62 63 63 61 60 57 55 52 50
31 32 35 37 38 41 43 46 50 52 55 59 63 67 70 74 78 77 73 67 60 54 48 44 42 41 40 39 39 39 40 39 40 40 41 42 44 46 47 49 49 49 47 46
32 34 36 38 41 44 46 50 53 56 60 65 69 73 76 77 73 65 57 49 43 39 36 36 36 37 37 36 36 35 34 33 32 31 30 30 31 33 35 37 41 43 42 42
34 36 40 42 44 47 49 53 57 61 65 70 73 75 73 66 57 49 41 37 35 35 35 36 37 38 37 36 35 34 32 30 28 26 26 25 25 27 28 30 33 39 41 40
35 38 41 45 48 50 54 57 62 66 70 73 74 71 62 51 43 38 35 35 36 38 39 39 39 40 39 37 36 34 32 30 28 27 26 26 25 25 26 28 30 34 40 40
39 41 44 48 51 54 58 62 66 70 72 72 68 60 49 41 37 35 36 38 41 42 43 43 42 42 41 39 38 36 34 31 29 28 26 26 25 26 27 28 30 31 37 42
42 45 47 50 54 58 61 65 69 71 70 66 59 50 42 38 37 38 40 43 45 46 46 45 45 44 42 41 40 38 36 34 32 30 29 28 26 26 27 29 31 31 33 39
45 48 51 54 57 61 64 68 71 71 66 58 51 44 40 39 40 42 44 47 47 48 48 47 46 45 43 41 40 39 37 35 33 31 29 28 28 27 27 28 30 33 33 36
46 49 53 56 59 64 68 71 71 67 61 53 45 41 40 41 43 45 47 49 49 49 49 48 46 44 42 40 39 38 37 34 32 29 28 28 27 27 27 28 29 31 34 37
49 52 54 58 62 66 70 72 69 62 55 48 43 41 42 44 46 48 50 51 50 49 48 47 45 43 41 39 37 36 34 31 29 27 26 25 24 24 24 24 26 29 34 38
49 53 56 60 64 68 71 72 67 60 52 45 42 43 45 46 48 50 51 50 49 48 48 46 44 41 38 36 32 29 27 25 24 24 23 22 21 21 22 23 25 29 35 39
50 54 58 62 66 69 72 72 66 59 50 44 42 44 46 49 51 51 50 49 49 48 46 43 39 36 32 28 26 23 21 20 19 19 20 19 19 20 21 24 27 32 37 41
51 55 59 63 67 71 72 70 64 56 48 43 44 46 48 50 50 49 48 48 46 43 41 37 34 31 27 23 19 16 15 15 17 17 18 18 19 20 22 26 32 36 39 42
53 57 61 65 69 71 72 68 61 53 47 44 45 47 49 51 50 48 48 46 42 39 36 34 31 27 22 16 10 9 9 12 15 17 17 18 20 22 26 31 36 39 42 44
53 57 61 65 69 72 71 67 59 51 46 44 46 48 50 50 48 47 46 43 41 37 34 31 26 21 14 7 2 5 9 13 16 17 18 20 24 28 31 36 39 41 44 41
53 57 61 64 68 71 70 65 57 49 45 45 46 48 49 48 47 46 44 40 38 35 32 28 22 16 10 6 7 11 15 18 20 21 23 27 30 31 34 37 41 43 41 39
53 57 60 64 67 70 69 64 55 48 44 44 46 47 47 46 45 43 41 38 36 33 29 25 20 16 13 13 14 17 20 22 24 28 31 32 31 33 36 38 41 40 39 38
52 56 60 63 66 68 67 61 54 46 43 43 45 46 45 43 42 41 39 37 34 31 28 24 21 18 17 18 20 22 25 28 31 32 31 32 32 33 35 36 37 38 37 35
52 55 59 62 65 67 65 59 51 44 41 42 44 44 43 41 40 39 36 34 33 30 27 24 22 21 22 24 26 28 30 32 32 31 31 32 32 32 33 34 35 36 34 32
51 54 58 61 63 65 63 57 48 41 38 40 41 41 40 38 37 37 35 34 33 30 27 24 23 23 25 27 28 30 31 32 31 32 32 31 31 30 31 32 33 34 31 29
50 53 56 59 61 63 62 55 46 37 35 36 37 37 37 35 35 34 33 32 32 30 27 25 24 25 26 28 29 31 31 31 31 30 30 29 29 28 28 29 30 29 28 27
49 52 55 57 60 61 60 54 44 35 32 33 34 33 32 31 31 31 30 29 28 27 26 25 25 26 28 28 28 28 29 29 28 28 27 26 26 26 26 27 27 26 25 24
48 50 53 55 57 59 57 52 42 33 30 30 31 30 29 28 27 27 26 25 25 24 23 23 24 25 25 25 25 26 25 25 25 25 24 24 24 23 24 24 23 23 22 22
Wind_Direction
321 319 318 317 317 315 312 309 305 303 301 302 302 301 300 298 297 296 294 293 291 289 287 285 282 281 279 277 276 275 274 273 273 273 272 272 272 271 272 272 272 273 276 277
326 324 321 320 319 316 313 311 308 306 305 305 304 303 302 301 299 298 296 294 291 289 287 284 282 280 279 277 276 274 273 273 272 272 271 271 271 271 272 272 271 271 272 273
329 327 322 323 322 318 315 312 311 309 308 307 306 305 305 303 301 299 297 295 292 290 287 285 283 281 279 278 276 275 274 273 273 273 271 270 270 270 270 269 268 268 268 268
329 325 322 323 320 316 314 313 311 309 308 308 308 307 306 304 302 300 298 296 295 293 292 290 289 287 285 283 281 279 277 275 274 272 271 270 269 268 267 265 263 262 262 262
329 325 320 322 320 317 315 314 312 311 311 310 309 309 308 307 305 304 302 301 300 299 299 298 297 294 293 290 288 285 283 280 277 274 271 269 267 265 262 259 257 255 254 255
328 324 322 322 320 319 318 317 317 316 315 314 313 312 311 309 307 307 306 305 305 306 306 306 305 304 303 301 298 295 291 287 283 279 274 269 265 261 257 253 248 245 243 243
328 325 324 324 324 323 321 320 319 318 317 317 316 314 313 311 311 310 310 311 311 312 313 312 312 310 308 306 302 299 296 292 286 281 276 270 263 258 253 249 242 235 231 231
331 330 329 328 326 325 323 322 322 321 320 319 318 316 315 314 315 315 315 315 315 314 314 313 312 310 309 307 304 300 297 293 288 282 277 272 263 255 251 247 239 230 223 221
333 332 329 329 328 328 326 325 325 324 323 322 320 319 318 318 318 317 316 315 314 313 312 311 309 308 306 304 301 298 295 292 286 280 276 270 264 257 251 245 240 234 225 217
333 333 333 332 330 330 329 328 327 327 325 324 322 322 321 321 319 318 316 314 313 311 310 309 307 305 303 301 298 295 292 288 284 279 273 268 264 257 250 245 240 234 225 216
333 333 334 334 333 331 331 330 330 329 328 326 325 325 323 321 320 318 317 315 314 312 310 308 306 303 300 297 293 291 289 285 280 275 270 265 263 258 250 245 239 231 224 218
333 334 335 335 334 332 332 332 333 332 331 329 327 326 324 322 320 319 318 316 314 313 311 309 306 303 299 295 291 288 285 282 277 272 266 262 259 256 250 243 234 228 224 218
333 335 335 335 334 334 335 335 336 335 333 332 329 327 325 323 322 321 320 318 316 314 312 310 307 304 300 295 290 286 283 278 273 267 262 259 256 252 245 238 228 223 218 208
334 334 335 336 336 336 337 338 338 337 335 333 331 329 327 325 324 323 322 320 318 316 314 311 308 305 300 295 291 286 280 274 266 259 256 254 250 243 234 225 218 211 205 197
334 334 335 337 338 339 339 340 340 339 337 335 333 331 329 328 327 326 325 323 320 318 316 313 310 307 303 297 291 285 277 268 258 251 247 242 235 226 219 211 203 199 195 188
334 335 337 338 339 340 341 342 341 341 339 337 335 334 333 332 331 330 328 326 323 322 320 317 315 312 307 300 291 281 270 257 247 238 230 225 219 212 205 198 194 189 184 180
335 337 338 339 341 342 342 343 342 341 340 339 338 338 337 336 336 334 332 330 328 327 326 324 320 317 313 304 293 277 259 242 229 218 212 206 202 197 191 184 178 176 174 172
336 338 339 340 341 342 344 344 343 342 341 341 341 341 341 340 339 339 337 336 335 333 332 331 327 323 318 309 288 258 231 211 199 192 187 184 181 175 168 167 166 167 165 164
336 338 340 341 342 343 345 345 345 344 343 343 344 345 344 344 344 343 342 342 341 342 342 340 339 338 336 326 257 180 168 166 169 170 168 166 163 158 157 159 161 161 162 163
337 338 340 342 343 344 345 346 346 345 345 346 347 348 347 346 347 347 349 349 349 350 351 352 356 3 16 58 112 132 141 146 148 148 148 147 149 151 154 158 160 161 162 163
337 339 341 342 343 345 346 347 347 348 348 349 350 351 350 350 351 353 356 358 0 2 6 11 21 36 62 87 109 123 130 134 134 135 136 139 144 149 153 156 158 159 160 161
337 339 341 343 344 345 347 348 349 350 350 352 353 353 353 355 358 359 2 6 12 15 20 28 39 56 77 95 108 117 121 125 128 130 133 138 142 147 150 153 157 159 160 161
337 339 341 343 345 346 348 349 350 351 352 354 355 357 358 1 4 7 10 16 21 26 32 41 53 70 87 99 108 114 118 122 124 128 134 139 143 146 150 153 155 158 159 161
337 339 341 343 345 347 349 350 351 352 353 355 357 359 2 7 11 14 17 22 29 36 45 55 68 81 92 99 107 114 119 123 124 127 131 137 141 144 148 153 157 159 161 163
337 339 341 343 345 347 349 351 352 353 355 357 359 2 6 11 15 19 25 30 36 43 52 63 75 85 94 101 107 113 118 122 125 128 130 135 140 145 149 153 157 161 163 164
336 339 341 343 345 347 349 351 352 354 356 359 2 5 10 14 18 23 29 36 42 49 57 67 78 88 95 100 106 111 116 122 127 130 132 136 141 145 151 157 161 164 166 168
336 338 340 343 345 347 349 351 353 353 357 0 3 7 11 15 19 25 33 40 45 51 60 70 80 86 91 97 105 112 118 122 128 132 136 141 145 149 153 158 162 166 171 174